Wind_Speed
12 11 10 10 10 10 10 10 9 9 9 10 11 11 12 12 11 11 10 9 8 6 5 4 4 4 3 3 3 3 3 2 2 3 6 8 9 10 11 11 11 11 11 11 11 10 11 12 11 11 11 10 10 11 12 13 15 15 15 15 15 16 16 15 15 15 16 17 18 18 19 19 19 20 20 19 19 20 20 21 21 21 21 20 19
16 15 14 13 12 11 10 10 10 10 10 10 10 11 12 12 12 12 11 10 9 8 7 7 6 5 5 4 4 3 3 2 1 4 8 9 10 10 11 11 11 10 10 10 10 10 10 11 9 7 6 6 6 7 8 10 13 15 16 15 15 16 16 14 14 15 15 16 17 17 17 17 16 16 17 17 17 17 17 18 18 19 19 18 17
20 18 17 16 15 14 13 12 11 10 10 11 11 11 11 11 11 11 11 10 9 8 8 7 6 5 4 4 3 3 2 1 2 4 7 8 8 8 9 10 9 9 9 9 9 10 9 9 7 5 3 2 3 5 7 10 13 15 17 18 17 17 15 14 15 16 15 14 15 16 16 16 15 15 14 14 15 15 15 15 15 16 17 16 15
22 21 19 18 18 17 16 15 14 13 12 12 11 11 11 10 10 9 8 8 7 7 7 6 5 5 5 5 5 4 3 3 3 4 5 4 4 4 6 7 6 6 7 7 8 9 9 8 6 4 3 1 3 6 9 11 13 14 15 17 19 17 13 12 14 14 13 12 12 13 16 16 15 15 15 14 13 13 14 14 14 14 14 13 13
26 24 22 21 20 19 18 18 17 16 15 14 13 12 11 10 10 9 7 7 7 7 6 5 5 6 6 6 5 4 3 3 4 4 4 2 0 0 1 2 2 2 2 4 7 8 7 6 4 2 1 2 4 7 9 10 12 13 13 14 17 17 13 11 12 14 13 12 12 13 14 15 15 15 15 15 14 14 14 13 13 12 12 11 10
28 27 26 25 23 22 21 20 19 18 18 17 16 15 14 12 11 11 10 10 9 8 8 8 8 8 7 7 7 6 5 5 6 6 5 3 2 3 2 2 3 3 3 3 4 4 3 3 3 4 4 5 6 7 8 9 10 12 12 12 14 14 13 11 12 14 13 13 15 16 15 15 15 15 15 16 15 14 14 14 13 12 10 9 8
32 30 30 28 26 24 23 22 21 21 20 20 19 18 17 15 14 14 14 13 12 11 10 11 9 9 9 9 8 8 7 8 9 8 8 7 6 6 6 5 7 8 7 6 7 7 7 6 6 7 7 7 8 8 9 9 9 10 10 11 11 11 11 12 13 14 13 12 15 16 15 14 14 14 16 17 16 15 15 15 14 12 10 7 6
36 33 32 31 29 27 26 24 23 22 22 22 22 20 19 18 18 18 17 15 14 13 13 13 12 11 11 11 11 10 9 9 10 11 11 12 11 11 11 10 10 12 12 11 10 10 9 8 8 8 8 8 8 9 9 10 10 11 12 13 13 12 12 13 13 13 13 14 15 15 13 12 11 12 14 16 17 16 15 14 13 13 12 8 5
39 37 35 34 33 30 28 27 26 25 25 25 24 22 21 20 20 20 19 18 17 17 16 16 15 15 15 15 15 13 12 11 12 13 14 14 14 14 15 14 14 14 15 15 15 14 14 14 14 12 10 9 9 10 11 13 13 14 15 16 17 16 15 16 15 14 13 14 15 16 15 13 11 12 13 15 16 17 16 15 14 13 13 13 10
40 38 37 36 35 32 30 29 29 28 28 28 27 25 24 23 23 22 21 21 21 20 19 18 18 18 18 19 18 18 16 15 16 16 16 16 17 17 17 17 17 16 17 18 18 19 19 19 17 15 13 13 14 14 15 16 17 17 17 18 19 18 16 15 14 15 16 16 16 17 18 17 15 13 14 15 16 17 18 18 16 15 14 15 15
42 40 38 37 35 34 32 31 30 29 29 29 29 28 27 26 26 24 24 23 23 23 22 21 20 20 20 21 21 20 20 19 18 18 19 19 19 20 20 20 19 19 18 19 21 22 23 21 19 18 18 19 19 19 18 18 19 20 19 18 20 20 19 16 15 16 17 17 18 18 19 19 18 17 17 16 16 16 18 20 20 19 17 15 16
46 43 40 38 36 35 34 33 31 30 30 30 30 30 29 29 28 27 27 26 26 26 25 24 24 24 24 24 24 23 23 22 21 21 20 21 21 21 22 22 21 21 21 21 23 25 25 25 24 24 23 23 22 21 21 21 22 23 21 20 22 24 23 20 18 18 19 19 20 20 19 19 19 20 21 20 18 18 19 21 22 23 22 20 18
49 47 43 38 36 35 34 34 33 32 32 32 31 31 31 30 30 29 29 29 29 29 28 28 27 27 28 28 28 28 27 26 25 24 23 23 22 23 23 23 23 23 24 25 26 27 28 30 30 29 27 26 25 24 24 24 25 27 26 24 25 26 26 25 23 22 23 24 23 22 22 21 22 22 24 24 23 22 22 23 23 25 25 25 23
52 49 44 38 36 35 36 36 35 35 36 36 35 35 35 34 33 31 30 31 32 31 31 30 30 30 31 32 33 33 32 31 29 28 27 27 26 25 25 25 26 26 27 28 29 29 31 32 32 32 30 29 29 29 28 27 28 29 29 29 29 29 28 28 27 26 26 26 26 25 25 25 24 24 25 25 25 25 25 25 25 25 25 26 25
54 51 46 43 42 42 42 42 41 39 40 41 39 39 39 38 36 35 35 35 34 33 31 32 32 33 33 34 36 37 36 35 34 32 31 30 30 29 28 28 28 30 31 32 32 33 33 34 34 35 34 34 34 34 33 33 32 31 31 32 34 34 33 32 30 30 30 29 29 30 29 29 28 26 26 27 28 28 28 28 28 28 28 28 28
56 53 50 48 47 46 45 45 44 42 43 43 42 41 42 40 36 35 37 38 37 35 34 36 37 36 34 34 35 36 37 37 37 36 34 33 32 32 31 32 32 34 36 36 36 37 38 37 37 38 38 38 37 37 37 37 37 35 34 35 37 38 38 37 36 36 37 36 34 34 34 33 33 31 30 30 30 31 31 31 31 31 32 32 31
57 54 52 50 49 49 47 44 44 45 44 44 43 43 44 43 40 39 39 38 39 39 38 38 37 36 35 36 36 36 37 38 38 37 36 35 34 33 33 35 37 39 39 40 40 41 42 41 40 41 42 42 42 42 41 41 40 40 39 39 40 41 41 42 42 43 43 40 38 37 37 37 36 36 35 35 34 35 35 35 35 35 36 36 35
57 55 53 53 52 51 49 47 46 47 47 45 45 45 46 47 45 44 43 42 43 45 44 42 41 40 39 39 39 38 39 39 38 39 38 37 34 34 34 36 40 42 42 43 44 44 43 43 42 43 44 43 44 45 45 44 44 44 44 44 44 44 44 45 46 47 46 43 40 39 40 40 40 39 38 38 38 38 39 39 38 39 40 40 40
57 56 56 56 55 52 49 47 46 47 49 49 48 47 48 50 48 45 45 46 47 49 48 47 47 48 47 44 42 41 40 40 40 41 40 38 34 32 32 34 39 43 44 44 45 44 42 41 43 45 45 44 43 44 45 47 47 47 46 46 46 46 46 48 49 50 49 45 43 43 43 43 43 42 41 41 41 41 41 42 42 42 42 43 43
59 59 58 57 55 50 47 45 45 46 49 52 54 54 52 53 54 50 49 49 49 49 50 49 49 51 51 48 45 43 42 43 44 44 43 41 37 34 33 35 39 42 44 44 43 42 41 42 45 47 47 47 48 49 50 50 49 48 47 46 46 47 49 50 51 52 50 46 45 46 46 46 45 44 44 44 43 42 41 42 43 43 44 45 45
58 59 59 57 54 49 48 48 46 44 46 50 56 58 55 54 56 56 55 54 52 50 51 53 54 55 55 53 50 48 48 48 47 46 45 44 42 40 38 39 40 41 42 44 43 43 44 47 49 50 49 49 50 49 49 50 50 49 47 46 46 48 50 51 51 51 50 47 48 50 49 48 48 48 48 47 45 43 43 43 43 44 45 46 47
58 57 56 53 51 48 47 48 48 49 52 55 57 59 57 55 54 55 57 58 58 56 56 58 60 60 61 60 57 53 51 51 49 48 46 46 46 46 44 43 44 44 42 43 45 46 46 49 51 51 50 51 51 49 48 49 49 48 47 48 50 52 53 52 51 50 49 48 50 52 50 49 50 50 50 48 47 46 47 47 47 48 48 49 50
60 58 54 52 52 51 48 49 53 56 60 62 60 60 60 58 56 56 58 59 60 60 60 62 64 64 65 65 62 58 55 55 55 54 53 49 49 51 51 50 50 49 45 44 46 48 48 48 50 50 50 50 52 54 54 53 52 50 50 51 52 54 56 56 55 54 53 52 52 52 52 51 51 50 50 50 51 53 55 55 54 54 53 53 54
65 63 60 58 58 59 58 57 59 61 64 64 63 63 63 60 59 60 61 62 63 63 63 65 67 67 66 66 67 66 64 63 63 61 59 55 53 56 58 57 56 54 52 50 51 53 54 55 56 55 54 53 53 55 56 57 57 56 55 55 55 56 58 60 60 60 60 58 57 57 57 57 56 56 56 57 58 60 61 61 60 60 60 59 59
69 69 69 67 64 64 66 65 65 67 68 67 66 66 65 64 63 63 63 64 66 66 67 68 70 69 68 66 67 68 67 66 65 63 62 60 59 61 63 62 60 59 58 57 58 59 60 61 62 61 60 58 58 57 56 57 58 58 58 59 61 62 62 64 65 66 67 67 65 64 65 66 66 67 67 68 67 67 66 66 66 65 66 66 67
72 72 74 74 71 68 68 69 69 70 71 71 70 69 67 66 66 67 67 68 69 70 72 74 74 73 72 70 70 69 68 67 66 65 64 64 64 65 66 64 63 63 64 64 64 63 62 63 64 64 64 65 65 64 63 63 63 64 65 65 66 67 68 70 72 73 74 74 73 72 73 74 75 76 77 76 76 75 74 74 73 72 71 72 73
75 74 74 76 76 74 72 72 72 72 72 72 73 73 72 71 72 72 73 74 74 75 76 78 79 78 77 77 76 75 74 72 70 70 69 68 69 69 69 67 65 65 66 68 69 69 68 67 67 68 68 69 70 71 71 71 71 73 74 75 75 76 77 78 79 79 79 79 79 80 80 81 82 83 84 84 84 84 83 83 82 81 80 80 79
76 75 74 75 77 79 78 77 75 74 72 71 70 71 71 72 75 77 78 79 79 79 79 80 82 83 83 83 82 82 80 78 77 76 75 74 73 72 72 70 69 67 68 70 72 73 74 74 74 74 74 74 74 74 76 76 77 78 78 80 81 82 82 83 83 83 83 83 84 85 86 87 89 90 91 92 92 91 90 90 89 89 89 88 87
79 77 75 74 76 79 80 81 79 77 76 73 71 70 69 69 72 75 78 79 79 79 80 80 81 84 86 88 88 87 85 83 81 79 76 75 74 74 74 73 73 71 71 72 73 75 77 78 79 80 80 80 79 79 79 80 81 82 83 83 85 86 87 87 87 87 88 89 90 92 93 94 94 95 96 96 96 96 96 95 95 95 95 94 94
82 81 79 77 77 77 79 82 82 81 79 78 77 74 70 69 69 72 75 77 77 77 77 78 79 81 83 86 88 88 85 83 80 78 76 75 75 75 76 76 76 76 76 76 76 77 78 79 80 81 82 83 83 83 83 83 84 85 86 87 88 89 90 91 91 92 93 95 95 96 96 96 95 95 94 94 94 95 96 96 97 98 99 99 97
84 84 83 82 81 79 80 81 83 82 81 81 82 80 76 72 70 70 71 74 75 75 75 76 77 78 80 81 83 83 82 80 78 78 77 78 78 79 79 79 79 79 78 78 78 78 78 79 80 81 81 82 83 84 85 86 87 88 89 90 90 91 92 93 93 93 94 95 96 96 96 95 94 93 93 94 95 97 99 99 100 102 102 102 100
87 86 85 85 85 84 83 82 82 81 79 80 83 83 82 78 75 73 73 73 74 75 74 74 74 75 77 79 80 80 79 78 78 78 78 79 80 81 82 83 83 82 81 80 80 80 81 81 82 83 84 85 86 86 87 88 89 91 92 92 93 93 94 94 95 95 95 95 97 97 98 98 99 100 102 104 106 107 107 106 105 105 105 104 102
89 89 87 87 87 88 87 85 83 81 79 78 79 81 82 81 79 78 77 76 76 77 77 76 76 76 76 77 79 80 81 82 81 80 80 80 80 81 82 83 83 84 84 84 84 85 85 86 86 86 86 87 87 88 89 90 91 93 94 95 95 96 96 97 98 98 99 99 100 102 103 105 106 108 109 109 109 109 108 107 106 106 106 106 106
90 91 91 90 89 89 90 89 87 84 82 80 79 78 79 79 79 79 79 79 79 79 80 80 81 81 81 81 81 81 83 84 84 84 83 82 82 82 82 84 84 85 85 86 87 88 88 89 90 91 91 90 90 91 91 92 93 94 95 96 96 97 98 99 99 100 101 102 103 104 105 107 107 108 108 108 108 108 108 109 109 110 111 111 112
89 91 93 93 93 92 92 92 91 89 87 85 83 81 80 79 79 79 79 80 80 81 82 83 84 84 85 85 85 85 86 86 87 87 88 88 87 87 87 88 88 89 90 90 91 91 92 93 94 95 95 96 97 97 97 98 98 99 99 100 100 100 101 101 102 102 103 104 105 106 107 108 108 109 109 110 111 112 113 114 115 116 116 117 117
88 90 91 93 94 95 95 95 95 93 92 90 88 87 85 83 82 82 82 82 82 82 83 84 85 86 86 87 88 89 89 90 91 91 92 92 93 93 94 94 94 94 95 95 96 97 97 98 99 100 101 102 103 104 104 105 106 107 107 108 108 109 109 109 110 110 111 111 112 113 113 114 114 114 115 116 117 118 118 119 119 120 120 120 120
85 88 90 92 93 94 95 96 96 96 95 94 92 91 90 89 88 87 86 86 85 86 86 87 88 88 89 89 90 90 91 92 94 94 95 96 97 98 99 99 99 99 100 100 101 102 102 104 105 105 106 107 108 109 110 111 112 113 114 114 115 115 116 116 116 117 117 117 118 118 118 118 119 119 120 120 121 121 121 121 122 122 122 123 123
80 84 87 89 91 92 93 94 95 95 95 95 94 94 93 93 92 92 91 91 91 90 90 91 91 91 92 92 92 93 93 94 95 95 96 97 97 98 100 101 101 102 102 103 104 105 106 107 108 109 110 111 111 112 113 114 115 116 117 118 118 119 120 120 120 121 121 122 122 122 122 122 122 123 123 123 124 124 124 124 125 125 126 126 127
75 79 83 86 88 89 90 91 92 92 93 94 94 94 94 94 93 93 94 94 95 96 96 96 96 96 96 97 97 97 97 98 98 98 99 99 99 99 100 101 101 102 103 104 104 105 106 108 109 111 112 113 114 115 116 117 118 119 120 121 121 122 123 123 124 124 125 125 126 126 126 126 127 127 128 128 128 129 129 130 130 131 131 132 132
68 73 78 81 84 86 87 88 89 89 90 91 92 93 93 93 93 93 93 94 95 97 98 99 100 101 101 102 102 102 102 103 103 103 104 104 105 105 105 106 106 106 107 107 108 108 109 110 111 112 113 114 115 116 117 119 120 121 122 123 124 125 125 126 127 128 129 130 130 131 131 131 132 132 133 134 134 135 136 136 137 137 138 138 139
61 65 70 75 79 82 84 86 87 88 88 88 89 89 91 92 93 93 94 94 95 95 96 98 99 100 102 102 103 104 105 106 107 107 108 109 110 110 111 111 112 112 113 113 114 114 115 115 116 116 117 117 118 118 119 120 121 123 124 125 125 126 128 129 130 131 132 133 133 134 135 135 136 137 138 139 139 140 141 141 142 142 143 143 143
56 59 62 66 70 74 78 81 83 85 87 87 88 88 88 89 90 91 92 93 94 95 96 97 98 99 100 101 102 103 104 105 106 107 108 109 110 111 112 113 114 115 116 117 117 118 118 119 120 120 121 121 122 123 124 125 126 127 128 129 130 131 132 133 135 136 136 137 138 138 139 140 141 141 142 143 143 144 144 145 146 146 146 146 146
54 57 59 62 65 68 71 74 77 79 82 84 86 87 88 88 89 89 90 91 92 94 95 96 97 98 99 100 101 102 102 104 105 106 107 108 109 110 112 113 114 115 116 117 118 118 119 120 121 122 123 124 125 126 127 128 129 130 132 133 134 135 136 137 138 139 140 140 141 141 142 142 143 143 144 144 145 145 146 146 146 146 146 146 146
49 52 56 60 63 65 68 70 73 75 77 80 82 84 86 88 89 90 91 91 92 93 94 95 96 97 98 99 100 101 102 103 104 105 106 107 108 109 110 111 113 114 115 116 117 118 119 120 121 122 123 124 124 125 126 127 128 129 130 132 133 134 135 136 137 138 139 139 140 140 141 141 142 142 142 143 143 143 144 143 143 143 143 142 142
45 48 51 54 57 60 63 66 69 72 74 77 79 81 83 85 87 89 90 91 92 93 94 95 96 96 97 99 100 101 102 103 104 105 106 107 108 109 110 111 111 113 114 115 116 117 118 119 120 121 122 123 123 124 125 125 126 127 128 129 129 130 131 132 133 134 135 135 136 136 137 137 138 138 138 139 139 139 138 138 137 136 135 134 133
42 45 48 50 52 55 57 60 63 66 69 71 74 76 79 81 83 85 87 88 90 91 92 93 94 95 97 98 99 100 101 103 104 105 106 107 108 108 109 110 111 112 112 113 114 115 116 117 118 119 120 121 122 122 123 123 124 125 126 126 127 127 128 128 129 130 131 131 132 132 132 132 132 132 132 132 132 131 130 129 128 127 126 125 124
43 44 46 48 50 52 53 55 58 60 63 65 68 70 73 75 77 79 81 82 84 85 87 88 90 91 92 93 94 96 97 98 99 100 101 102 103 104 105 106 107 108 109 110 111 112 113 114 115 116 117 117 118 119 119 120 120 121 121 122 122 123 123 124 124 125 125 125 126 126 126 126 126 125 125 125 124 124 123 122 121 120 119 118 116
45 46 48 49 50 51 53 54 55 56 58 60 62 64 66 68 70 72 73 75 76 78 79 81 82 83 84 85 87 88 89 90 92 93 94 95 97 98 99 100 101 103 104 105 107 108 109 110 111 112 112 113 114 114 115 115 116 117 117 117 118 118 118 119 119 120 120 120 120 120 121 121 121 121 120 120 119 118 117 116 114 112 111 110 108
48 49 50 50 51 52 53 54 55 56 57 57 58 59 61 62 64 65 66 68 69 71 72 73 74 76 77 78 79 81 82 83 85 86 88 89 91 92 94 96 97 99 100 102 103 104 105 106 107 108 109 110 111 112 112 113 114 114 115 115 116 116 117 117 117 117 117 117 118 118 117 117 117 116 115 113 112 110 109 107 105 104 102 101 99
49 50 52 52 52 53 53 54 55 56 57 57 58 59 59 60 60 61 62 63 65 66 67 69 70 71 73 74 76 77 78 80 81 83 85 87 88 90 92 94 96 97 99 100 102 103 104 105 107 108 109 110 110 111 112 113 114 114 115 115 115 116 116 116 116 115 115 114 114 113 112 111 110 109 107 105 104 102 100 98 97 95 93 92 91
50 51 52 53 53 53 53 53 54 55 56 57 58 59 60 60 60 61 62 63 65 66 68 69 71 72 74 75 76 78 79 80 82 84 85 87 89 91 93 95 96 98 100 101 103 104 105 106 107 108 109 110 110 111 112 112 113 113 113 113 113 113 112 112 111 110 109 108 107 106 105 104 102 101 99 97 95 93 91 90 88 86 85 84 82
Wind_Direction
227 229 224 211 196 184 177 174 172 171 170 170 173 176 180 183 187 192 196 200 201 200 199 200 200 206 215 229 251 283 310 335 358 57 89 94 89 85 84 88 94 102 111 118 122 121 118 122 123 115 107 100 89 77 69 60 49 40 34 33 32 29 28 35 41 44 46 45 42 40 39 40 42 43 43 44 43 43 46 49 50 49 49 50 51
221 222 223 222 213 203 194 188 183 180 178 177 178 181 185 189 193 197 201 205 206 208 209 214 218 222 231 247 264 276 287 303 31 89 98 96 92 91 91 93 99 104 108 112 117 124 128 131 132 127 120 109 88 69 55 43 33 23 14 10 13 15 18 27 37 43 47 44 38 35 34 31 31 31 33 34 34 34 36 39 39 38 38 41 44
222 220 220 222 219 213 206 201 197 194 191 189 187 186 187 189 193 197 201 204 207 211 214 218 222 224 232 241 242 241 242 206 134 114 106 99 95 94 96 100 105 108 106 108 117 130 141 147 150 151 149 118 61 31 16 17 17 10 1 357 358 5 15 23 32 40 47 43 34 28 27 26 23 20 19 20 19 19 22 26 28 26 27 31 36
224 224 221 222 223 220 214 209 206 204 203 201 200 198 195 193 195 197 201 202 203 208 213 215 212 208 209 210 215 220 214 187 166 152 140 123 102 99 106 109 113 111 109 113 123 130 136 141 145 150 146 102 10 355 356 5 5 358 353 351 351 357 8 14 16 23 31 35 30 21 17 19 21 18 14 10 6 2 3 9 15 19 20 23 27
222 225 224 223 223 224 222 218 214 211 209 210 211 212 211 207 204 205 207 209 210 212 216 217 213 210 207 209 215 222 222 210 203 191 179 172 202 287 146 136 141 140 124 133 137 135 134 137 142 161 188 278 312 329 344 352 354 352 348 343 342 345 351 354 358 4 8 17 22 15 8 7 7 8 9 7 4 357 352 353 357 4 11 15 17
221 224 225 225 224 224 225 225 222 218 216 215 215 215 217 218 217 215 215 215 216 217 219 221 221 221 224 225 230 231 227 226 229 225 221 228 266 285 266 243 256 267 267 239 207 204 224 251 269 275 273 279 290 310 327 331 339 346 346 338 332 333 334 334 344 353 358 6 12 10 6 3 359 355 353 356 0 360 354 349 345 347 353 2 5
220 223 226 226 226 226 226 227 227 226 224 223 221 219 217 217 220 222 223 223 223 222 224 228 230 232 235 238 242 239 233 232 237 239 240 246 269 283 277 274 278 278 276 270 263 267 274 277 281 286 286 282 283 293 303 305 309 317 323 326 324 323 323 322 328 337 342 349 353 355 358 1 1 355 344 341 346 352 354 351 343 339 340 345 350
221 223 226 227 227 227 227 228 229 229 229 231 230 228 224 222 222 226 229 231 230 229 230 234 236 240 242 245 248 246 241 240 244 245 245 249 259 267 269 273 278 275 272 273 273 274 276 273 267 266 267 271 276 284 292 295 295 292 294 303 308 311 311 313 320 328 337 341 336 330 336 345 347 347 339 334 333 336 342 345 341 338 338 337 331
221 222 225 228 228 228 228 230 232 231 231 233 233 233 232 230 229 230 232 235 236 236 237 238 239 242 246 249 252 253 251 249 250 251 252 253 255 258 262 269 274 271 270 269 270 271 270 267 264 263 267 274 277 282 290 293 292 288 286 291 299 304 305 308 317 322 327 333 325 314 314 318 320 322 323 323 323 322 324 328 328 328 331 331 326
222 223 225 228 229 229 229 231 234 235 235 234 233 232 233 234 235 235 236 238 240 241 242 243 244 245 247 251 253 254 253 251 251 253 256 258 260 262 263 267 270 271 271 269 266 266 264 262 262 265 271 274 272 275 283 288 287 288 291 296 299 302 301 301 308 310 311 316 316 308 305 304 302 305 310 313 315 314 313 314 315 316 319 322 320
223 225 225 226 228 229 230 232 236 238 240 240 237 234 232 233 235 237 239 241 243 244 245 247 249 250 252 254 256 256 255 253 251 251 253 256 260 262 264 266 267 268 269 268 265 263 262 261 262 264 266 268 269 273 280 286 286 288 292 293 291 291 292 292 292 294 297 302 305 304 303 299 297 296 299 303 307 308 308 309 309 309 308 310 311
225 225 224 224 227 230 231 234 237 239 242 245 244 241 237 236 236 237 239 241 243 246 247 249 250 253 255 257 258 258 258 257 254 252 252 254 256 259 261 263 264 264 265 266 265 265 265 265 266 267 268 269 272 277 281 282 284 286 285 282 281 285 289 289 286 286 286 288 293 299 299 296 293 293 292 292 293 296 300 304 305 304 302 301 302
226 225 223 223 228 233 235 237 239 240 240 241 244 245 244 243 242 241 240 241 243 245 247 248 250 252 254 256 256 256 255 256 257 256 256 255 256 258 260 262 263 264 264 264 265 267 269 269 269 270 270 270 272 276 279 280 281 282 280 276 278 282 283 281 281 282 280 279 284 291 294 291 289 288 289 288 289 289 293 296 298 297 296 297 299
227 226 223 223 227 234 237 238 241 243 242 239 240 243 245 247 247 245 244 246 249 249 248 249 251 253 254 255 256 256 256 256 256 256 257 258 258 259 260 262 263 265 267 267 266 267 269 270 271 271 270 269 270 273 275 274 274 275 274 273 276 279 278 276 277 278 277 276 279 285 289 289 289 288 288 288 289 289 289 291 290 288 285 286 290
226 225 222 221 223 226 228 230 232 237 240 240 239 241 244 246 247 248 247 247 250 251 250 251 253 253 255 256 256 256 257 257 256 256 255 256 258 260 260 262 264 266 267 268 268 268 268 268 270 271 271 271 272 274 276 275 272 272 270 270 273 276 277 277 278 279 280 281 283 286 288 288 289 289 288 288 288 289 289 290 290 288 283 281 281
226 226 224 222 224 225 226 228 230 232 236 239 240 240 241 241 242 245 246 246 247 249 250 253 253 250 248 251 254 256 258 258 257 255 254 255 258 260 262 264 264 265 266 267 268 270 270 269 270 273 274 273 273 273 275 275 275 274 271 270 271 273 276 278 280 280 281 282 285 286 286 286 287 287 287 286 287 287 288 289 289 289 287 284 282
226 226 225 224 226 228 228 230 233 233 236 240 240 241 242 241 239 240 242 246 248 248 248 251 251 248 246 249 254 258 259 259 258 255 254 256 259 263 267 269 270 268 267 267 267 269 271 271 272 274 274 274 274 274 274 274 275 276 274 272 272 274 275 277 278 279 280 282 284 284 284 284 284 284 285 285 285 286 286 287 288 288 288 286 285
226 227 227 226 228 230 230 233 235 236 238 241 242 242 243 243 241 241 242 246 248 247 246 249 250 250 253 254 255 255 255 256 258 259 258 258 261 265 270 274 273 270 267 267 266 268 273 276 275 274 274 275 276 276 276 275 275 275 275 273 273 274 275 275 276 278 280 282 283 284 283 283 282 282 283 284 285 285 286 286 286 286 286 287 287
226 226 226 226 229 231 233 236 238 239 240 243 243 242 241 240 240 242 244 244 245 246 247 249 250 250 253 254 252 252 252 251 253 255 254 254 257 263 270 274 273 269 266 266 267 268 271 274 274 273 273 273 273 274 275 275 273 272 271 272 273 273 273 273 275 277 278 279 281 282 282 281 282 282 283 283 284 285 286 286 287 287 287 287 287
224 224 224 227 229 230 231 233 235 238 241 243 242 241 240 239 239 240 242 243 245 246 247 249 248 247 248 250 250 251 251 250 249 249 249 250 252 258 266 270 269 268 266 265 267 267 265 265 266 267 268 267 267 270 272 272 270 268 269 272 273 272 271 272 273 274 276 277 278 278 278 278 279 280 281 281 281 282 284 286 288 289 289 288 287
221 222 224 227 229 229 229 229 230 232 235 238 240 241 242 242 241 240 239 242 246 248 248 248 247 246 247 249 249 249 248 247 247 247 249 252 253 256 261 263 264 268 268 264 264 264 262 260 260 262 264 265 266 268 270 268 267 269 270 272 272 271 270 271 271 272 274 275 274 274 275 276 277 277 278 278 277 279 281 284 286 287 288 289 289
221 221 223 226 227 225 224 224 224 226 229 233 237 239 240 241 241 240 240 242 245 247 248 248 247 247 248 249 248 247 247 246 248 251 256 259 258 259 262 262 260 263 265 265 264 265 264 263 263 263 264 266 267 266 267 267 268 269 270 269 268 268 268 269 269 270 271 272 272 273 275 276 277 278 278 277 277 278 280 281 282 283 284 285 287
221 220 219 222 223 221 219 218 220 224 228 232 235 238 238 239 239 239 239 240 241 243 245 248 248 248 248 248 248 248 249 251 254 258 262 263 262 262 265 265 260 256 256 259 263 265 266 266 265 265 267 268 267 266 265 266 268 268 267 265 265 265 266 268 269 269 270 271 272 273 274 275 275 276 275 275 277 280 281 282 281 281 281 282 283
219 218 218 220 221 222 222 221 220 224 229 232 236 238 239 238 238 239 241 241 242 243 246 248 250 250 250 249 250 252 255 259 261 263 263 263 261 261 264 266 265 260 256 256 259 262 264 265 266 268 269 269 268 267 266 266 265 265 264 263 263 263 264 266 268 269 270 271 273 274 274 274 274 274 274 275 277 279 281 282 282 282 282 282 282
217 218 219 220 220 222 225 225 224 225 228 232 235 237 237 238 239 241 242 243 244 246 247 248 249 251 252 252 253 256 259 261 263 264 263 263 261 261 262 264 266 266 262 259 258 260 262 264 265 267 268 268 267 267 266 265 264 264 263 263 263 263 264 266 268 269 270 272 273 274 276 276 276 277 278 279 280 280 280 281 282 283 283 283 283
218 220 221 222 222 222 225 228 229 230 230 232 234 235 237 238 240 241 242 243 245 246 247 248 249 251 253 254 256 258 260 262 263 264 264 264 263 262 262 262 264 265 264 262 261 261 262 263 264 265 266 267 267 267 266 266 266 266 266 266 265 265 266 268 269 269 269 270 271 273 275 276 277 277 278 279 280 280 281 281 281 281 282 283 283
219 220 222 223 224 223 225 228 231 232 233 233 235 236 238 240 241 242 243 244 245 247 247 248 249 251 253 254 256 258 260 262 264 265 265 266 265 264 263 263 263 264 264 264 263 262 262 263 265 266 266 267 268 268 268 268 268 267 267 267 267 267 269 270 270 270 269 269 270 271 274 276 277 278 278 279 280 280 281 281 281 281 281 282 282
217 218 220 222 224 224 225 227 230 232 233 233 235 237 238 240 241 242 243 244 246 247 247 248 249 250 251 252 255 257 259 261 264 265 266 267 267 266 265 265 266 265 264 264 264 264 263 264 265 267 268 269 270 270 270 270 270 269 268 267 267 268 269 270 270 269 269 268 269 271 273 275 276 277 278 279 280 281 281 282 282 282 282 283 283
216 217 218 221 223 224 225 227 230 232 233 232 233 236 238 240 240 241 241 243 245 246 247 247 248 248 249 250 253 257 259 262 263 265 266 267 267 267 266 267 268 268 266 265 265 266 266 266 266 266 268 270 271 270 270 269 269 269 269 268 268 269 270 270 270 270 270 271 271 273 274 276 277 278 279 280 281 282 283 282 282 282 282 283 283
217 218 219 221 224 225 226 228 231 233 234 233 234 236 239 241 242 242 242 243 244 246 247 248 248 248 249 250 253 256 260 262 264 265 265 266 266 267 268 268 269 269 269 268 268 268 268 268 268 268 269 270 271 271 270 269 268 268 268 269 269 270 270 271 271 271 271 272 273 274 275 276 277 278 279 279 280 280 280 280 279 280 281 282 283
218 219 221 222 224 225 227 229 231 233 235 235 235 237 239 241 242 243 244 244 245 246 247 248 249 250 251 252 254 256 259 261 263 264 265 266 267 268 268 268 269 269 269 269 269 269 269 269 269 270 270 270 270 270 271 271 271 271 271 271 271 271 271 271 271 271 272 272 273 273 274 274 273 274 274 274 275 276 276 277 277 278 280 282 283
219 220 222 223 225 226 227 228 230 233 235 235 236 237 240 242 243 244 244 245 245 246 246 247 248 249 251 253 255 257 258 260 261 263 265 266 267 268 268 267 267 267 267 266 266 267 267 268 269 269 269 269 269 269 269 269 269 270 270 270 271 271 271 271 272 272 272 272 272 272 272 272 272 273 273 274 276 277 278 278 279 280 281 282 283
222 222 222 223 225 227 228 228 230 232 234 235 237 238 240 242 243 244 244 245 246 246 247 247 248 248 249 250 252 254 256 258 259 261 262 264 265 266 266 266 266 266 266 266 266 266 266 266 266 267 267 267 267 267 267 267 267 267 267 267 268 269 270 270 271 271 271 272 272 272 272 273 274 275 276 277 278 279 279 280 280 281 281 282 282
224 224 224 224 225 228 229 230 231 232 234 236 238 240 242 243 245 245 246 246 247 247 247 248 249 249 250 250 251 252 253 255 256 257 258 260 261 262 263 263 264 264 264 264 265 265 266 266 265 265 265 265 265 266 266 267 267 267 267 268 268 269 269 270 270 271 271 272 272 273 273 274 275 276 277 277 278 279 279 280 280 280 281 281 281
226 227 227 227 227 228 230 232 233 234 235 237 239 241 243 245 246 248 250 250 251 251 251 251 251 252 252 253 253 254 254 255 255 255 256 257 258 259 261 262 262 263 263 263 264 264 264 264 264 265 265 265 265 265 266 266 267 267 268 269 269 270 270 271 271 271 272 272 273 273 274 275 275 276 276 277 277 278 279 279 280 280 281 281 281
228 229 230 230 230 231 232 233 235 236 237 238 240 241 243 245 247 249 251 252 254 255 255 256 256 256 257 257 258 258 259 259 259 259 259 259 260 261 262 263 264 265 265 265 265 265 265 266 266 266 266 266 266 266 267 267 267 268 269 269 270 271 271 272 272 273 273 274 274 275 275 276 276 277 277 278 278 279 279 280 280 281 281 281 282
230 231 231 232 233 234 235 235 237 238 239 240 241 243 244 246 247 249 250 252 254 255 256 257 257 258 259 259 260 261 262 262 263 263 264 264 264 265 265 266 266 267 267 267 267 267 267 267 267 268 268 268 268 268 269 269 269 270 270 271 272 272 273 273 274 274 275 275 276 276 277 277 277 278 278 278 279 279 279 280 280 280 280 281 281
233 233 234 234 235 236 237 238 239 240 241 243 244 245 246 247 248 250 251 252 253 254 256 256 257 258 259 259 260 261 262 263 263 264 265 265 266 266 266 267 267 268 268 268 268 268 268 269 269 269 269 269 270 270 270 271 271 272 272 272 273 273 274 274 274 275 275 276 276 276 277 277 277 277 278 278 278 278 278 278 278 278 279 279 279
236 236 236 237 237 239 240 241 241 242 243 245 246 247 249 250 250 251 252 253 254 255 256 257 258 258 259 260 261 262 262 263 264 264 265 266 266 266 267 267 267 268 268 269 269 269 269 269 270 270 270 270 271 271 271 272 272 272 273 273 273 273 274 274 274 275 275 275 276 276 276 277 277 277 277 277 277 277 277 277 277 278 278 278 278
240 239 239 239 240 241 242 243 244 245 246 247 248 249 250 251 252 253 254 255 255 256 257 258 259 259 260 261 262 263 263 264 265 265 266 266 267 267 268 268 269 269 269 269 270 270 270 270 270 271 271 271 271 271 272 272 272 272 273 273 273 273 274 274 274 275 275 275 276 276 276 277 277 277 277 277 278 278 278 278 278 279 279 279 279
245 244 244 243 243 244 244 245 246 247 248 249 250 250 251 252 252 253 254 255 256 257 258 259 260 260 261 262 263 264 264 265 265 266 267 268 268 269 269 270 270 271 271 271 271 271 271 272 272 272 272 272 272 272 272 272 272 272 272 272 273 273 273 274 274 275 275 275 276 276 276 277 277 277 277 278 278 278 279 279 279 279 280 280 280
250 250 249 249 248 248 248 249 249 250 251 252 252 253 254 254 254 255 255 256 257 257 258 259 260 261 262 263 264 265 265 266 267 267 268 269 269 270 271 271 272 272 272 273 273 273 273 273 273 273 273 273 273 273 273 273 273 273 273 273 274 274 274 275 275 275 276 276 276 277 277 277 278 278 278 279 279 279 279 280 280 280 280 280 280
253 252 252 252 252 252 252 252 252 252 253 254 254 255 256 257 257 258 258 259 259 259 260 261 262 262 263 264 265 266 267 267 268 269 269 270 271 271 272 272 273 273 273 274 274 274 274 274 274 275 275 275 275 275 275 275 275 275 275 275 275 276 276 276 276 277 277 277 278 278 278 278 279 279 279 279 279 280 280 280 280 281 281 281 281
257 255 254 254 254 254 253 253 253 254 254 255 256 256 257 258 259 259 260 261 262 262 263 263 264 264 265 266 267 267 268 268 269 270 271 271 272 272 273 274 274 274 275 275 275 275 275 275 275 275 275 275 275 275 275 275 276 276 276 276 276 276 277 277 277 277 278 278 278 278 278 279 279 279 279 279 280 280 280 281 281 281 281 281 282
261 260 258 257 257 257 256 256 256 256 256 257 257 258 258 259 260 260 261 262 262 263 264 265 265 266 267 268 268 269 269 270 270 271 271 272 272 273 273 274 274 274 275 275 275 275 275 275 275 275 275 275 275 275 276 276 276 276 276 276 277 277 277 277 277 278 278 278 278 278 279 279 279 279 280 280 280 281 281 281 281 282 282 282 282
268 266 263 261 259 259 258 258 258 258 259 259 259 259 260 260 261 262 262 263 264 264 265 265 266 267 267 268 269 269 270 270 271 271 271 272 272 272 273 273 273 274 274 274 275 275 275 275 275 276 276 276 276 276 276 276 276 277 277 277 277 277 277 278 278 278 278 279 279 279 279 280 280 280 281 281 281 282 282 282 283 283 283 283 283
274 272 270 267 265 263 261 260 259 259 259 259 260 260 261 261 262 262 263 263 264 265 265 266 266 267 267 268 269 269 270 270 270 271 271 272 272 272 273 273 273 274 274 274 274 275 275 275 276 276 276 276 277 277 277 277 277 277 278 278 278 278 278 279 279 279 279 280 280 280 281 281 281 282 282 282 283 283 284 284 284 284 284 284 284
273 272 271 270 269 267 266 264 263 262 261 261 261 261 262 262 263 263 264 264 265 265 266 267 267 268 268 269 269 269 270 270 271 271 272 272 272 273 273 273 274 274 274 274 275 275 275 276 276 277 277 277 278 278 278 278 279 279 279 279 280 280 280 280 280 281 281 281 282 282 282 282 283 283 284 284 284 285 285 285 285 285 285 285 285
274 272 271 270 269 268 268 267 266 266 265 265 264 264 264 265 265 266 266 267 267 268 268 268 269 269 270 270 270 271 271 272 272 272 273 273 273 274 274 274 275 275 275 276 276 276 277 277 278 278 278 279 279 279 280 280 280 281 281 281 281 281 282 282 282 282 282 283 283 283 283 284 284 284 285 285 285 286 286 286 286 286 286 286 286
274 272 271 269 268 268 268 268 268 268 267 267 267 267 267 267 268 268 269 269 270 270 270 270 270 271 271 271 271 271 272 272 273 273 273 274 274 275 275 275 276 276 277 277 278 278 278 279 279 280 280 280 281 281 281 281 282 282 282 282 282 283 283 283 283 284 284 284 284 284 285 285 285 285 286 286 286 286 287 287 287 287 286 286 286
274 273 271 269 268 268 268 269 269 268 268 268 267 267 268 268 269 269 269 270 270 270 270 271 271 271 271 272 272 272 273 273 274 274 275 275 275 276 276 277 277 278 278 279 279 280 280 280 281 281 281 281 282 282 282 282 282 282 283 283 283 283 283 284 284 284 284 285 285 285 285 286 286 286 286 287 287 287 287 287 287 287 287 287 287
Height
10962 10963 10964 10965 10965 10966 10966 10966 10966 10967 10967 10967 10968 10969 10970 10971 10973 10974 10975 10976 10976 10977 10978 10978 10979 10980 10980 10981 10981 10982 10982 10982 10982 10982 10981 10981 10981 10981 10982 10982 10982 10981 10981 10980 10980 10980 10979 10979 10979 10978 10977 10976 10976 10975 10975 10974 10974 10973 10973 10972 10972 10971 10970 10970 10969 10969 10968 10967 10966 10966 10965 10964 10963 10963 10962 10961 10960 10959 10958 10957 10957 10956 10955 10955 10954
10959 10960 10962 10963 10964 10965 10966 10966 10966 10966 10967 10967 10967 10968 10969 10970 10971 10972 10973 10974 10975 10976 10977 10977 10978 10979 10980 10980 10981 10981 10982 10982 10982 10982 10982 10981 10981 10981 10982 10982 10982 10982 10981 10981 10981 10981 10981 10980 10980 10979 10978 10977 10976 10975 10975 10974 10974 10973 10973 10972 10972 10971 10971 10970 10970 10969 10969 10968 10968 10967 10967 10966 10965 10965 10964 10963 10962 10962 10961 10960 10959 10959 10958 10957 10956
10957 10958 10959 10961 10962 10963 10964 10965 10966 10966 10966 10966 10967 10967 10968 10969 10970 10970 10971 10972 10973 10974 10976 10976 10977 10978 10979 10979 10980 10980 10981 10981 10982 10982 10982 10982 10982 10982 10982 10982 10982 10982 10982 10982 10982 10981 10981 10981 10980 10980 10979 10978 10977 10976 10975 10975 10974 10973 10973 10972 10972 10971 10971 10970 10970 10970 10969 10969 10968 10968 10967 10967 10967 10966 10965 10965 10964 10963 10962 10961 10961 10960 10960 10959 10958
10954 10956 10957 10959 10960 10961 10962 10963 10964 10965 10965 10966 10966 10967 10968 10968 10969 10969 10970 10971 10972 10974 10975 10976 10977 10977 10978 10978 10979 10979 10980 10980 10981 10981 10981 10982 10982 10982 10982 10982 10982 10982 10982 10981 10981 10981 10981 10981 10980 10980 10979 10978 10977 10976 10976 10975 10975 10974 10973 10972 10972 10971 10971 10971 10970 10970 10970 10969 10969 10968 10968 10968 10967 10967 10966 10965 10965 10964 10963 10962 10962 10961 10961 10960 10959
10951 10953 10955 10956 10957 10959 10960 10961 10962 10963 10964 10964 10965 10966 10967 10968 10969 10969 10970 10971 10972 10973 10974 10975 10976 10976 10977 10977 10977 10978 10979 10980 10980 10980 10980 10981 10982 10982 10982 10982 10981 10981 10981 10981 10981 10981 10980 10980 10980 10979 10979 10978 10977 10976 10976 10975 10975 10974 10974 10973 10972 10972 10971 10971 10970 10970 10969 10969 10969 10968 10968 10968 10967 10967 10967 10966 10965 10964 10964 10963 10962 10962 10962 10961 10960
10948 10951 10952 10953 10955 10956 10958 10959 10960 10961 10962 10963 10963 10964 10966 10967 10968 10969 10969 10969 10970 10971 10973 10973 10974 10975 10976 10976 10976 10977 10978 10979 10980 10980 10980 10980 10981 10981 10982 10982 10981 10981 10981 10980 10980 10980 10980 10979 10979 10978 10978 10977 10976 10975 10975 10975 10974 10974 10974 10973 10972 10972 10971 10971 10970 10970 10970 10969 10969 10969 10968 10968 10967 10967 10966 10966 10966 10965 10964 10963 10963 10962 10962 10961 10960
10944 10947 10949 10951 10953 10954 10956 10957 10958 10959 10960 10961 10961 10962 10963 10965 10966 10967 10968 10968 10969 10970 10971 10972 10973 10974 10974 10975 10975 10976 10977 10978 10978 10979 10979 10979 10980 10980 10981 10981 10981 10980 10980 10980 10980 10979 10979 10978 10978 10977 10976 10975 10974 10974 10974 10973 10973 10973 10973 10972 10972 10971 10970 10970 10970 10970 10970 10969 10969 10969 10968 10968 10967 10967 10966 10965 10965 10965 10964 10963 10962 10962 10962 10961 10961
10940 10943 10946 10948 10950 10952 10953 10955 10956 10957 10958 10959 10960 10961 10962 10963 10964 10965 10966 10967 10968 10968 10969 10970 10971 10972 10973 10973 10974 10975 10976 10976 10977 10977 10978 10978 10979 10979 10979 10979 10980 10980 10979 10979 10978 10978 10977 10977 10976 10974 10974 10973 10973 10973 10973 10973 10972 10972 10972 10971 10970 10969 10969 10969 10969 10969 10969 10969 10969 10968 10968 10968 10968 10967 10966 10965 10964 10964 10964 10963 10962 10962 10962 10961 10961
10935 10939 10941 10944 10947 10949 10951 10952 10953 10954 10955 10956 10957 10959 10960 10961 10962 10963 10964 10965 10966 10967 10968 10968 10969 10970 10971 10971 10972 10973 10974 10975 10975 10976 10976 10976 10977 10977 10977 10978 10978 10978 10978 10977 10977 10976 10975 10974 10972 10972 10972 10973 10973 10973 10972 10972 10971 10971 10970 10970 10969 10968 10967 10968 10968 10968 10968 10968 10968 10967 10967 10967 10967 10966 10966 10965 10964 10963 10963 10962 10962 10962 10961 10961 10960
10931 10934 10937 10940 10944 10946 10948 10950 10950 10951 10952 10953 10955 10956 10957 10959 10960 10961 10962 10964 10965 10966 10967 10967 10968 10968 10969 10969 10970 10971 10972 10973 10973 10973 10974 10974 10974 10975 10975 10976 10976 10976 10976 10975 10974 10973 10972 10971 10970 10971 10971 10971 10970 10970 10970 10969 10969 10968 10968 10968 10968 10967 10967 10966 10966 10966 10966 10966 10966 10965 10965 10965 10965 10965 10965 10964 10963 10962 10962 10961 10961 10961 10961 10960 10959
10927 10930 10933 10937 10941 10943 10945 10946 10948 10949 10950 10950 10951 10953 10954 10955 10957 10959 10960 10961 10962 10964 10965 10966 10967 10967 10967 10968 10968 10968 10969 10970 10970 10971 10971 10971 10972 10972 10972 10973 10974 10974 10973 10972 10971 10969 10969 10969 10969 10969 10969 10968 10967 10967 10967 10966 10966 10966 10967 10967 10966 10965 10965 10964 10964 10964 10964 10964 10964 10964 10963 10963 10963 10963 10963 10963 10962 10961 10961 10960 10960 10959 10959 10959 10958
10922 10925 10929 10933 10937 10940 10942 10943 10945 10947 10948 10948 10949 10950 10951 10952 10953 10955 10956 10958 10959 10961 10962 10964 10965 10966 10966 10966 10966 10966 10967 10967 10967 10967 10968 10968 10969 10969 10969 10970 10970 10971 10970 10969 10967 10966 10967 10967 10967 10966 10966 10965 10965 10965 10965 10964 10964 10964 10965 10964 10963 10963 10962 10961 10961 10962 10962 10962 10962 10962 10961 10961 10961 10961 10961 10961 10961 10960 10959 10958 10957 10957 10956 10956 10956
10918 10921 10925 10930 10935 10938 10940 10941 10942 10944 10944 10946 10947 10948 10948 10948 10949 10950 10952 10953 10954 10956 10958 10960 10961 10962 10963 10963 10963 10964 10963 10964 10964 10964 10965 10965 10966 10966 10967 10967 10967 10967 10966 10965 10964 10964 10963 10963 10962 10963 10963 10962 10962 10962 10962 10962 10961 10961 10962 10961 10960 10960 10959 10958 10958 10959 10959 10959 10959 10959 10959 10958 10959 10958 10958 10958 10958 10957 10956 10955 10955 10954 10953 10952 10953
10913 10918 10924 10929 10932 10935 10937 10938 10939 10941 10942 10943 10943 10944 10944 10944 10945 10947 10948 10949 10950 10951 10953 10955 10956 10957 10958 10959 10960 10960 10960 10961 10961 10961 10962 10962 10963 10963 10964 10964 10964 10963 10962 10961 10961 10960 10959 10958 10959 10958 10958 10958 10958 10958 10958 10958 10957 10957 10958 10957 10956 10956 10956 10956 10956 10956 10955 10956 10956 10956 10956 10955 10955 10955 10955 10954 10953 10953 10952 10951 10951 10950 10950 10949 10949
10910 10914 10919 10922 10924 10925 10926 10928 10930 10934 10936 10937 10938 10939 10939 10940 10941 10943 10944 10945 10946 10947 10949 10950 10950 10951 10953 10954 10954 10955 10956 10957 10958 10958 10958 10958 10959 10959 10960 10961 10961 10959 10957 10956 10956 10956 10955 10955 10955 10954 10954 10955 10955 10954 10953 10953 10952 10953 10953 10953 10952 10951 10951 10952 10953 10952 10952 10952 10953 10952 10952 10951 10951 10951 10951 10950 10949 10949 10948 10947 10947 10946 10946 10946 10946
10906 10910 10914 10917 10918 10918 10919 10921 10924 10926 10929 10931 10932 10933 10934 10936 10937 10939 10940 10942 10943 10944 10944 10944 10943 10944 10945 10946 10948 10950 10951 10952 10953 10953 10954 10954 10954 10955 10956 10957 10956 10954 10952 10952 10952 10951 10950 10952 10952 10950 10950 10951 10951 10950 10950 10948 10948 10948 10948 10948 10948 10947 10946 10947 10948 10948 10948 10948 10949 10948 10947 10947 10946 10946 10946 10946 10945 10944 10944 10943 10943 10942 10942 10942 10942
10901 10905 10910 10913 10914 10915 10917 10919 10921 10921 10923 10925 10926 10927 10929 10931 10933 10933 10936 10938 10940 10940 10940 10939 10939 10939 10939 10940 10943 10945 10946 10947 10947 10948 10949 10949 10950 10951 10952 10952 10951 10949 10948 10948 10947 10945 10945 10947 10948 10947 10946 10946 10946 10946 10945 10944 10943 10943 10943 10943 10943 10942 10942 10942 10942 10942 10942 10943 10944 10943 10942 10942 10941 10941 10941 10940 10940 10939 10938 10938 10938 10938 10937 10937 10938
10897 10902 10906 10908 10908 10910 10912 10914 10916 10917 10918 10919 10921 10922 10924 10926 10928 10929 10932 10935 10935 10934 10934 10935 10935 10935 10935 10936 10939 10940 10941 10942 10943 10943 10944 10944 10945 10946 10947 10947 10945 10943 10943 10942 10941 10940 10940 10940 10941 10941 10941 10941 10941 10941 10939 10938 10938 10938 10938 10938 10938 10937 10937 10936 10936 10935 10936 10937 10938 10937 10936 10935 10935 10935 10935 10934 10933 10933 10932 10932 10933 10932 10931 10931 10932
10891 10894 10898 10900 10902 10905 10908 10910 10912 10914 10915 10916 10917 10917 10918 10920 10922 10924 10926 10928 10927 10927 10928 10929 10930 10930 10930 10931 10932 10933 10934 10935 10936 10937 10938 10939 10940 10942 10942 10941 10939 10936 10936 10936 10936 10937 10936 10934 10933 10934 10934 10935 10935 10935 10934 10933 10932 10932 10932 10933 10933 10933 10932 10931 10930 10930 10930 10932 10932 10931 10930 10929 10928 10928 10928 10927 10927 10926 10926 10925 10926 10926 10926 10925 10925
10882 10885 10889 10892 10896 10901 10904 10906 10908 10910 10911 10910 10909 10909 10910 10913 10915 10917 10918 10919 10920 10920 10922 10923 10923 10923 10923 10924 10924 10925 10926 10927 10928 10930 10932 10933 10936 10938 10937 10935 10933 10930 10930 10930 10931 10932 10932 10929 10927 10928 10928 10928 10928 10929 10928 10927 10927 10926 10927 10928 10928 10927 10926 10925 10925 10925 10925 10927 10927 10925 10925 10923 10922 10922 10921 10921 10920 10920 10920 10919 10919 10920 10920 10919 10919
10875 10879 10883 10887 10892 10896 10898 10900 10902 10903 10903 10901 10899 10900 10903 10905 10907 10909 10910 10912 10913 10914 10915 10916 10916 10916 10915 10916 10916 10917 10918 10919 10921 10923 10926 10928 10931 10933 10931 10929 10928 10926 10925 10925 10925 10925 10924 10922 10921 10921 10922 10922 10922 10922 10921 10921 10921 10922 10923 10923 10923 10922 10921 10920 10920 10919 10920 10920 10919 10918 10919 10918 10917 10916 10915 10915 10914 10914 10914 10913 10913 10913 10913 10913 10913
10868 10872 10877 10881 10885 10888 10889 10891 10893 10893 10891 10890 10891 10893 10895 10897 10898 10901 10903 10904 10905 10907 10907 10907 10907 10907 10907 10907 10908 10909 10910 10912 10914 10916 10919 10922 10925 10926 10925 10924 10922 10921 10920 10919 10919 10918 10916 10915 10914 10915 10916 10916 10916 10916 10915 10915 10916 10917 10917 10917 10917 10915 10914 10914 10914 10914 10913 10913 10912 10912 10912 10912 10911 10910 10909 10908 10907 10907 10907 10907 10907 10907 10907 10906 10906
10861 10866 10870 10872 10874 10877 10878 10880 10882 10882 10881 10882 10884 10886 10887 10889 10891 10893 10894 10896 10896 10897 10898 10898 10898 10899 10899 10900 10901 10902 10902 10904 10906 10909 10912 10915 10917 10916 10916 10916 10914 10914 10915 10914 10912 10911 10909 10907 10907 10908 10909 10910 10910 10910 10910 10909 10910 10910 10910 10910 10910 10909 10908 10907 10907 10907 10906 10905 10905 10905 10905 10905 10905 10905 10903 10902 10901 10900 10900 10900 10900 10900 10900 10900 10899
10853 10857 10860 10861 10863 10866 10868 10871 10872 10873 10873 10875 10877 10878 10879 10881 10882 10883 10885 10887 10888 10890 10891 10890 10890 10891 10892 10893 10894 10894 10895 10897 10900 10902 10904 10908 10909 10907 10906 10906 10907 10908 10910 10909 10907 10905 10903 10901 10900 10902 10903 10904 10904 10903 10903 10903 10903 10903 10903 10902 10902 10901 10900 10899 10899 10899 10898 10898 10898 10897 10897 10898 10898 10898 10897 10896 10896 10894 10893 10893 10892 10892 10892 10892 10892
10845 10847 10848 10850 10853 10857 10859 10862 10864 10864 10865 10867 10868 10869 10870 10871 10873 10875 10877 10879 10881 10882 10882 10882 10882 10884 10885 10886 10887 10887 10889 10891 10893 10895 10897 10899 10900 10898 10897 10898 10900 10902 10903 10902 10901 10899 10897 10896 10896 10896 10896 10896 10897 10897 10897 10896 10896 10895 10895 10894 10894 10893 10892 10891 10890 10890 10890 10889 10889 10889 10889 10889 10889 10888 10888 10888 10888 10887 10887 10886 10885 10885 10884 10884 10883
10837 10838 10839 10842 10846 10849 10852 10855 10856 10856 10858 10860 10862 10863 10864 10865 10866 10868 10870 10871 10872 10873 10873 10873 10874 10876 10877 10878 10879 10881 10882 10884 10885 10887 10889 10891 10891 10890 10889 10890 10892 10893 10894 10893 10892 10892 10891 10890 10890 10889 10889 10888 10888 10889 10890 10890 10889 10888 10887 10886 10885 10884 10884 10883 10883 10882 10881 10880 10880 10879 10879 10879 10878 10878 10878 10877 10877 10877 10877 10877 10877 10876 10876 10875 10875
10828 10829 10833 10837 10840 10843 10845 10847 10847 10847 10851 10854 10856 10857 10858 10859 10859 10861 10862 10863 10864 10865 10865 10865 10867 10868 10870 10871 10871 10872 10874 10876 10877 10879 10880 10881 10882 10882 10881 10882 10883 10884 10884 10883 10883 10883 10883 10883 10882 10882 10881 10880 10880 10880 10881 10880 10880 10879 10877 10876 10875 10875 10874 10874 10873 10873 10872 10871 10870 10869 10868 10868 10867 10866 10866 10866 10865 10865 10865 10865 10865 10865 10865 10865 10865
10819 10822 10825 10829 10832 10834 10837 10839 10839 10840 10843 10846 10848 10850 10851 10852 10852 10853 10854 10855 10856 10857 10858 10859 10860 10861 10862 10863 10864 10865 10867 10868 10869 10870 10871 10872 10873 10873 10873 10873 10874 10874 10874 10873 10873 10874 10874 10873 10873 10873 10873 10872 10872 10871 10871 10870 10869 10868 10867 10866 10865 10864 10863 10863 10862 10862 10861 10860 10859 10858 10858 10857 10856 10854 10854 10853 10852 10852 10852 10852 10851 10851 10851 10852 10852
10812 10814 10817 10820 10823 10826 10829 10831 10832 10833 10835 10838 10840 10841 10842 10844 10844 10845 10846 10847 10848 10849 10851 10852 10854 10855 10856 10856 10857 10858 10859 10860 10861 10862 10862 10863 10863 10864 10864 10864 10865 10865 10865 10864 10864 10863 10863 10863 10863 10863 10863 10863 10862 10861 10860 10859 10857 10856 10855 10854 10854 10853 10853 10852 10851 10850 10849 10848 10847 10846 10845 10844 10843 10842 10841 10840 10839 10838 10838 10838 10838 10837 10837 10837 10837
10804 10806 10809 10811 10814 10818 10821 10823 10824 10825 10827 10830 10832 10833 10834 10835 10837 10838 10839 10839 10840 10841 10843 10844 10845 10847 10848 10849 10850 10850 10851 10851 10852 10853 10853 10853 10854 10854 10854 10855 10855 10855 10854 10854 10854 10853 10853 10852 10852 10853 10853 10852 10851 10849 10848 10847 10846 10845 10845 10844 10844 10843 10842 10841 10839 10838 10837 10835 10834 10833 10832 10831 10830 10829 10828 10827 10826 10825 10824 10824 10823 10823 10822 10822 10822
10795 10798 10800 10803 10806 10809 10813 10815 10817 10818 10820 10822 10823 10825 10826 10827 10828 10829 10830 10831 10832 10833 10834 10835 10837 10838 10839 10841 10842 10842 10842 10842 10842 10843 10843 10843 10844 10844 10844 10844 10844 10844 10844 10844 10844 10843 10843 10842 10842 10842 10842 10840 10839 10837 10835 10834 10834 10833 10833 10833 10832 10831 10829 10828 10827 10826 10824 10823 10821 10820 10819 10818 10817 10816 10815 10814 10813 10812 10811 10810 10808 10807 10806 10806 10806
10786 10789 10792 10795 10798 10801 10804 10807 10809 10811 10812 10813 10815 10816 10817 10818 10820 10821 10822 10823 10824 10825 10826 10827 10828 10829 10831 10832 10832 10832 10832 10833 10833 10833 10833 10833 10833 10833 10833 10833 10833 10834 10834 10834 10834 10834 10833 10833 10832 10831 10830 10829 10827 10826 10824 10823 10822 10821 10820 10819 10818 10817 10816 10815 10814 10813 10812 10811 10809 10807 10806 10805 10804 10803 10802 10801 10799 10798 10797 10796 10794 10792 10791 10789 10788
10776 10780 10783 10787 10790 10794 10796 10798 10800 10802 10804 10805 10805 10807 10808 10810 10811 10813 10814 10815 10816 10817 10818 10818 10819 10820 10821 10822 10822 10822 10822 10822 10823 10823 10823 10823 10823 10823 10822 10822 10822 10822 10822 10823 10823 10823 10823 10822 10822 10821 10819 10818 10816 10815 10814 10812 10811 10809 10808 10806 10805 10803 10802 10802 10801 10800 10799 10798 10796 10795 10793 10792 10790 10788 10787 10785 10783 10782 10780 10779 10778 10776 10775 10774 10772
10767 10771 10775 10779 10782 10785 10788 10789 10791 10793 10794 10795 10797 10799 10801 10802 10803 10804 10805 10806 10807 10808 10809 10809 10810 10810 10811 10811 10812 10812 10812 10812 10813 10813 10813 10813 10812 10812 10811 10811 10810 10811 10811 10811 10811 10811 10811 10811 10810 10809 10808 10806 10805 10804 10802 10801 10799 10797 10796 10794 10792 10790 10789 10788 10786 10785 10784 10783 10781 10780 10779 10777 10775 10774 10772 10770 10768 10766 10764 10762 10760 10759 10758 10757 10756
10759 10763 10766 10770 10773 10776 10778 10780 10781 10782 10784 10786 10788 10790 10792 10794 10795 10796 10797 10797 10798 10799 10799 10799 10799 10799 10800 10800 10800 10801 10801 10802 10802 10802 10802 10802 10801 10801 10800 10800 10799 10799 10800 10800 10800 10799 10799 10798 10797 10796 10795 10794 10793 10791 10790 10788 10786 10784 10782 10780 10777 10776 10774 10773 10771 10769 10768 10766 10765 10763 10762 10761 10759 10757 10756 10754 10752 10750 10748 10746 10744 10742 10741 10739 10738
10751 10754 10758 10761 10764 10766 10768 10770 10771 10773 10775 10777 10779 10781 10783 10785 10787 10787 10788 10788 10789 10789 10789 10789 10788 10788 10788 10789 10789 10790 10790 10790 10790 10790 10790 10790 10790 10789 10789 10789 10788 10788 10788 10787 10787 10786 10785 10784 10783 10782 10781 10780 10779 10777 10775 10774 10772 10769 10767 10765 10763 10761 10759 10757 10755 10753 10752 10750 10748 10747 10745 10743 10742 10740 10738 10736 10734 10732 10731 10729 10727 10725 10723 10721 10720
10743 10746 10749 10751 10754 10756 10758 10761 10763 10764 10766 10768 10770 10772 10774 10776 10777 10778 10778 10779 10780 10779 10779 10778 10777 10777 10778 10778 10779 10779 10779 10778 10778 10778 10778 10778 10778 10778 10777 10777 10776 10776 10775 10775 10774 10773 10771 10769 10768 10767 10765 10764 10763 10761 10760 10758 10756 10754 10751 10749 10747 10745 10743 10741 10739 10737 10735 10733 10731 10730 10728 10726 10724 10722 10720 10718 10716 10714 10712 10710 10709 10707 10705 10703 10701
10735 10737 10740 10742 10745 10747 10750 10752 10754 10755 10757 10758 10760 10762 10764 10766 10767 10768 10769 10769 10769 10768 10767 10767 10766 10766 10766 10767 10767 10768 10767 10767 10767 10766 10766 10766 10765 10764 10764 10763 10763 10762 10762 10761 10760 10759 10757 10755 10753 10752 10751 10749 10748 10746 10745 10743 10740 10738 10735 10733 10731 10729 10727 10725 10722 10720 10718 10716 10714 10712 10711 10709 10706 10704 10702 10700 10698 10696 10694 10693 10691 10689 10687 10685 10683
10727 10729 10731 10733 10736 10738 10740 10742 10744 10746 10747 10749 10751 10752 10754 10755 10756 10757 10758 10757 10756 10755 10755 10754 10755 10755 10755 10755 10756 10756 10755 10755 10754 10753 10753 10752 10751 10750 10749 10749 10748 10748 10747 10746 10745 10744 10743 10741 10739 10737 10735 10734 10732 10731 10729 10727 10724 10722 10719 10717 10715 10712 10710 10707 10704 10702 10700 10697 10695 10694 10693 10691 10689 10686 10683 10681 10679 10677 10675 10673 10672 10670 10668 10666 10664
10720 10721 10723 10725 10727 10729 10731 10732 10734 10736 10738 10739 10741 10742 10743 10744 10745 10746 10745 10745 10744 10744 10743 10743 10743 10742 10742 10743 10743 10743 10742 10741 10740 10739 10738 10737 10736 10735 10734 10734 10733 10732 10732 10731 10730 10729 10727 10726 10724 10722 10720 10719 10717 10715 10713 10710 10707 10705 10702 10700 10697 10694 10691 10688 10685 10683 10680 10678 10676 10675 10674 10672 10670 10666 10663 10661 10659 10657 10654 10652 10650 10648 10646 10643 10641
10713 10714 10716 10718 10719 10721 10722 10723 10725 10726 10728 10729 10730 10731 10732 10732 10733 10733 10733 10733 10733 10733 10732 10732 10731 10730 10730 10730 10730 10729 10728 10727 10726 10725 10723 10722 10721 10719 10719 10718 10717 10716 10715 10714 10713 10712 10711 10710 10708 10706 10704 10702 10700 10699 10696 10694 10690 10687 10684 10681 10679 10676 10673 10669 10666 10664 10661 10659 10657 10656 10654 10651 10648 10645 10642 10640 10637 10635 10632 10630 10628 10625 10623 10620 10617
10706 10708 10709 10710 10711 10713 10714 10715 10716 10717 10717 10718 10718 10719 10720 10721 10721 10722 10722 10722 10722 10722 10721 10720 10719 10719 10718 10717 10717 10716 10714 10713 10712 10710 10709 10708 10706 10704 10702 10701 10700 10699 10698 10697 10696 10694 10693 10691 10690 10688 10686 10684 10682 10680 10678 10675 10671 10667 10664 10662 10659 10656 10653 10650 10648 10645 10642 10640 10638 10635 10632 10629 10626 10623 10620 10617 10614 10611 10609 10606 10604 10601 10598 10595 10592
10698 10700 10701 10702 10703 10703 10705 10705 10706 10706 10707 10707 10707 10708 10708 10709 10709 10710 10710 10710 10710 10710 10710 10709 10708 10707 10706 10705 10704 10702 10701 10699 10697 10696 10694 10693 10691 10689 10687 10685 10683 10682 10681 10680 10678 10676 10674 10672 10670 10669 10667 10664 10662 10660 10658 10655 10651 10648 10645 10641 10638 10635 10633 10630 10628 10624 10621 10619 10616 10614 10610 10607 10604 10601 10597 10594 10591 10588 10585 10582 10579 10576 10573 10570 10567
10690 10691 10692 10692 10693 10694 10695 10695 10696 10696 10696 10696 10697 10697 10697 10697 10697 10697 10697 10697 10697 10697 10697 10696 10696 10695 10693 10692 10690 10689 10687 10686 10684 10682 10680 10678 10676 10674 10672 10669 10667 10665 10663 10661 10659 10657 10655 10653 10651 10649 10647 10645 10643 10641 10638 10635 10632 10629 10626 10622 10619 10616 10613 10610 10607 10603 10599 10597 10594 10591 10588 10585 10582 10578 10575 10571 10568 10565 10562 10559 10556 10553 10550 10546 10543
10683 10683 10683 10684 10684 10685 10685 10685 10686 10686 10686 10686 10686 10686 10686 10686 10686 10685 10685 10685 10685 10685 10684 10684 10683 10682 10680 10678 10676 10674 10673 10671 10669 10667 10666 10664 10662 10660 10657 10655 10652 10649 10646 10644 10642 10639 10637 10634 10632 10630 10628 10626 10624 10621 10619 10616 10614 10610 10606 10603 10600 10597 10594 10591 10587 10582 10579 10576 10573 10570 10566 10563 10560 10556 10553 10549 10546 10543 10540 10537 10534 10532 10528 10525 10522
10676 10675 10675 10676 10676 10676 10676 10676 10676 10676 10676 10676 10676 10675 10675 10675 10675 10674 10674 10673 10673 10673 10672 10671 10670 10669 10667 10665 10663 10661 10659 10657 10656 10654 10652 10650 10648 10645 10643 10640 10638 10634 10631 10628 10625 10622 10619 10616 10613 10611 10608 10606 10604 10602 10600 10597 10594 10591 10587 10584 10581 10578 10575 10571 10567 10563 10559 10556 10553 10549 10546 10542 10539 10536 10532 10528 10524 10521 10519 10516 10513 10511 10508 10504 10501
10668 10668 10667 10667 10668 10668 10667 10667 10667 10666 10666 10665 10665 10665 10664 10664 10663 10663 10662 10662 10661 10661 10660 10659 10658 10656 10655 10653 10651 10649 10647 10645 10643 10640 10638 10635 10633 10631 10628 10625 10622 10619 10616 10613 10609 10606 10603 10599 10596 10594 10591 10588 10585 10583 10581 10578 10574 10571 10568 10565 10562 10559 10555 10551 10547 10543 10540 10537 10533 10529 10526 10522 10518 10515 10511 10508 10505 10501 10498 10496 10493 10490 10486 10483 10480
10661 10660 10660 10659 10659 10659 10658 10658 10657 10657 10657 10656 10656 10655 10654 10653 10652 10652 10652 10651 10650 10650 10648 10647 10646 10644 10643 10641 10639 10637 10635 10632 10629 10627 10624 10622 10619 10616 10613 10610 10607 10604 10600 10597 10594 10590 10587 10584 10581 10578 10575 10572 10568 10565 10562 10559 10555 10551 10548 10546 10543 10540 10536 10532 10528 10525 10521 10518 10515 10511 10507 10503 10499 10495 10491 10489 10486 10482 10479 10476 10472 10469 10466 10463 10460
10653 10652 10652 10651 10651 10650 10649 10649 10648 10648 10648 10647 10646 10645 10644 10644 10643 10642 10642 10641 10640 10639 10637 10635 10634 10632 10631 10629 10627 10624 10622 10620 10617 10614 10611 10608 10605 10602 10599 10595 10592 10589 10585 10582 10579 10576 10572 10569 10566 10562 10559 10556 10552 10548 10545 10541 10537 10533 10530 10527 10524 10520 10516 10513 10509 10506 10503 10499 10496 10492 10488 10484 10480 10477 10473 10470 10467 10464 10461 10457 10454 10451 10448 10445 10442
10645 10644 10643 10642 10642 10641 10641 10641 10640 10640 10639 10638 10637 10636 10636 10635 10635 10634 10633 10631 10630 10628 10626 10625 10623 10621 10619 10617 10615 10613 10611 10608 10605 10602 10599 10595 10592 10589 10585 10582 10578 10574 10571 10568 10564 10561 10558 10554 10550 10547 10543 10540 10536 10532 10528 10524 10520 10516 10512 10509 10505 10501 10497 10494 10490 10487 10484 10480 10476 10472 10469 10465 10462 10459 10456 10453 10450 10447 10444 10441 10438 10435 10431 10428 10425
10637 10636 10634 10633 10633 10633 10633 10632 10632 10631 10630 10629 10628 10628 10627 10627 10626 10625 10624 10622 10620 10618 10616 10614 10612 10610 10608 10606 10604 10602 10600 10597 10594 10590 10587 10583 10580 10576 10572 10569 10565 10561 10557 10553 10550 10546 10542 10539 10535 10531 10527 10523 10519 10515 10510 10506 10502 10498 10494 10491 10488 10484 10480 10476 10473 10469 10466 10462 10458 10455 10452 10448 10445 10442 10439 10437 10434 10431 10428 10425 10422 10420 10417 10413 10410